Simultaneous Nadir Overpasses (SNOs) Predictions

Prediction of SNOs between LANDSAT-8 and NOAA-19 Satellite Orbit:

Table of predicted SNOs for the next 14.0 days since TLE Epoch: 1/18/2025
Index Date (LANDSAT-8) Time (LANDSAT-8) Lat,Lon (LANDSAT-8) SZA (LANDSAT-8 ) Date (NOAA-19) Time (NOAA-19) Lat,Lon (NOAA-19) SZA (NOAA-19 ) Distance(km) Time Diff (sec)
1 01/18/2025 20:18:31 79.87, -98.14 101.00 01/18/2025 20:17:51 79.87, -98.20 100.98 1.07 40
2 01/18/2025 21:07:54 -80.01, 70.61 78.81 01/18/2025 21:08:49 -80.00, 70.53 78.81 1.83 55
3 01/21/2025 03:31:05 -79.93, -25.80 79.43 01/21/2025 03:31:13 -79.93, -25.87 79.43 1.57 8
4 01/23/2025 09:54:15 -79.87,-122.07 80.05 01/23/2025 09:53:36 -79.87,-122.04 80.05 0.59 39
5 01/23/2025 10:43:38 79.98, 46.42 100.11 01/23/2025 10:44:25 79.99, 46.54 100.14 2.41 47
6 01/25/2025 17:06:48 79.90, -50.02 99.42 01/25/2025 17:06:49 79.89, -50.10 99.41 1.74 1
7 01/27/2025 23:29:57 79.83,-146.33 98.74 01/27/2025 23:29:11 79.84,-146.19 98.74 2.93 46
8 01/28/2025 00:19:21 -79.94, 22.19 81.12 01/28/2025 00:20:11 -79.95, 22.29 81.08 2.29 50



Historial Predications of SNOs between LANDSAT-8 and NOAA-19
